Wetterdaten: Woche 11.01.16 - 17.01.16 (KW2)
Datum Zeit Temperatur Luftfeuchte Luftdruck Niederschlag Windrichtung Sonnenschein Solar Wind
11.01.2016 00:00 4,4 C 99 % 998,6 hPa 0,4 l/m SW 0,00 h 0 W/m 12,6 km/h (3 Bft)
11.01.2016 01:00 4,4 C 100 % 997,7 hPa 0,2 l/m SW 0,00 h 0 W/m 17,0 km/h (3 Bft)
11.01.2016 02:00 4,2 C 99 % 997,2 hPa 1,0 l/m SW 0,00 h 0 W/m 12,6 km/h (3 Bft)
11.01.2016 03:00 4,0 C 99 % 996,4 hPa 1,2 l/m S-SW 0,00 h 0 W/m 9,8 km/h (2 Bft)
11.01.2016 04:00 3,7 C 99 % 995,3 hPa 1,6 l/m S-SW 0,00 h 0 W/m 5,4 km/h (1 Bft)
11.01.2016 05:00 3,1 C 99 % 994,2 hPa 1,8 l/m S-SW 0,00 h 0 W/m 9,0 km/h (2 Bft)
11.01.2016 06:00 2,1 C 99 % 993,1 hPa 1,4 l/m S-SO 0,00 h 0 W/m 1,3 km/h (1 Bft)
11.01.2016 07:00 2,0 C 99 % 992,6 hPa 1,4 l/m N 0,00 h 0 W/m 0,5 km/h (0 Bft)
11.01.2016 08:00 2,2 C 99 % 992,2 hPa 1,8 l/m O-SO 0,00 h 7 W/m 1,6 km/h (1 Bft)
11.01.2016 09:00 2,3 C 99 % 992,2 hPa 0,8 l/m O 0,00 h 12 W/m 1,3 km/h (1 Bft)
11.01.2016 10:00 2,5 C 100 % 992,3 hPa 0,4 l/m N 0,00 h 25 W/m 0,9 km/h (0 Bft)
11.01.2016 11:00 3,4 C 100 % 992,0 hPa 0,0 l/m SW 0,00 h 94 W/m 8,2 km/h (2 Bft)
11.01.2016 12:00 5,2 C 99 % 992,0 hPa 0,0 l/m SW 0,00 h 61 W/m 18,5 km/h (3 Bft)
11.01.2016 13:00 5,2 C 96 % 991,7 hPa 0,4 l/m W-SW 0,00 h 40 W/m 19,3 km/h (3 Bft)
11.01.2016 14:00 5,1 C 96 % 992,0 hPa 0,0 l/m SW 0,00 h 38 W/m 19,2 km/h (3 Bft)
11.01.2016 15:00 4,9 C 96 % 991,9 hPa 0,0 l/m SW 0,00 h 42 W/m 13,7 km/h (3 Bft)
11.01.2016 16:00 4,5 C 97 % 991,7 hPa 0,2 l/m SW 0,25 h 24 W/m 18,1 km/h (3 Bft)
11.01.2016 17:00 5,1 C 91 % 992,2 hPa 0,0 l/m W 0,00 h 0 W/m 38,8 km/h (5 Bft)
11.01.2016 18:00 4,7 C 90 % 992,3 hPa 0,0 l/m W-SW 0,00 h 0 W/m 22,9 km/h (4 Bft)
11.01.2016 19:00 4,9 C 89 % 992,5 hPa 0,0 l/m W-SW 0,00 h 0 W/m 23,7 km/h (4 Bft)
11.01.2016 20:00 4,8 C 89 % 992,8 hPa 0,0 l/m W 0,00 h 0 W/m 35,4 km/h (5 Bft)
11.01.2016 21:00 4,2 C 92 % 993,5 hPa 0,2 l/m W-SW 0,00 h 0 W/m 33,5 km/h (5 Bft)
11.01.2016 22:00 4,0 C 90 % 994,0 hPa 0,0 l/m W-SW 0,00 h 0 W/m 35,0 km/h (5 Bft)
11.01.2016 23:00 3,8 C 89 % 994,7 hPa 0,0 l/m W-SW 0,00 h 0 W/m 30,1 km/h (5 Bft)
12.01.2016 00:00 3,7 C 90 % 995,1 hPa 0,0 l/m W-SW 0,00 h 0 W/m 27,6 km/h (4 Bft)
12.01.2016 01:00 3,7 C 92 % 995,2 hPa 0,2 l/m W-SW 0,00 h 0 W/m 38,8 km/h (5 Bft)
12.01.2016 02:00 3,3 C 94 % 995,3 hPa 0,6 l/m W-SW 0,00 h 0 W/m 30,2 km/h (5 Bft)
12.01.2016 03:00 3,5 C 94 % 995,5 hPa 0,0 l/m W-SW 0,00 h 0 W/m 33,7 km/h (5 Bft)
12.01.2016 04:00 3,4 C 93 % 995,9 hPa 0,0 l/m W-SW 0,00 h 0 W/m 29,0 km/h (5 Bft)
12.01.2016 05:00 3,5 C 92 % 996,2 hPa 0,0 l/m W-SW 0,00 h 0 W/m 26,9 km/h (4 Bft)
12.01.2016 06:00 2,8 C 94 % 996,9 hPa 1,6 l/m W-SW 0,00 h 0 W/m 20,0 km/h (4 Bft)
12.01.2016 07:00 1,9 C 96 % 997,2 hPa 0,8 l/m W-SW 0,00 h 0 W/m 8,0 km/h (2 Bft)
12.01.2016 08:00 2,0 C 97 % 997,8 hPa 2,0 l/m W 0,00 h 5 W/m 10,7 km/h (2 Bft)
12.01.2016 09:00 1,3 C 97 % 999,5 hPa 0,8 l/m W-NW 0,00 h 23 W/m 10,5 km/h (2 Bft)
12.01.2016 10:00 2,0 C 98 % 1000,8 hPa 0,8 l/m W-SW 0,25 h 87 W/m 15,3 km/h (3 Bft)
12.01.2016 11:00 3,3 C 97 % 1001,2 hPa 0,0 l/m W 0,42 h 175 W/m 24,3 km/h (4 Bft)
12.01.2016 12:00 4,5 C 94 % 1001,6 hPa 0,0 l/m W-SW 0,25 h 159 W/m 25,2 km/h (4 Bft)
12.01.2016 13:00 4,9 C 90 % 1002,0 hPa 0,0 l/m W-SW 0,17 h 132 W/m 27,8 km/h (4 Bft)
12.01.2016 14:00 5,0 C 89 % 1002,3 hPa 0,0 l/m W-SW 0,08 h 111 W/m 27,0 km/h (4 Bft)
12.01.2016 15:00 4,4 C 91 % 1002,9 hPa 0,0 l/m W-SW 0,00 h 35 W/m 22,5 km/h (4 Bft)
12.01.2016 16:00 3,9 C 92 % 1003,4 hPa 0,0 l/m W-SW 0,25 h 30 W/m 19,3 km/h (3 Bft)
12.01.2016 17:00 3,4 C 92 % 1003,9 hPa 0,0 l/m SW 0,00 h 0 W/m 20,2 km/h (4 Bft)
12.01.2016 18:00 3,2 C 91 % 1004,2 hPa 0,0 l/m W 0,00 h 0 W/m 24,8 km/h (4 Bft)
12.01.2016 19:00 2,7 C 92 % 1004,6 hPa 0,0 l/m W-SW 0,00 h 0 W/m 23,4 km/h (4 Bft)
12.01.2016 20:00 2,6 C 93 % 1005,1 hPa 1,2 l/m W-SW 0,00 h 0 W/m 24,0 km/h (4 Bft)
12.01.2016 21:00 2,2 C 95 % 1005,4 hPa 1,4 l/m W-SW 0,00 h 0 W/m 24,5 km/h (4 Bft)
12.01.2016 22:00 1,6 C 96 % 1006,2 hPa 1,0 l/m W-SW 0,00 h 0 W/m 20,9 km/h (4 Bft)
12.01.2016 23:00 1,1 C 97 % 1006,7 hPa 0,6 l/m W-SW 0,00 h 0 W/m 10,7 km/h (2 Bft)
13.01.2016 00:00 1,2 C 97 % 1007,4 hPa 1,6 l/m W-SW 0,00 h 0 W/m 10,7 km/h (2 Bft)
13.01.2016 01:00 1,1 C 97 % 1008,1 hPa 0,0 l/m W 0,00 h 0 W/m 16,6 km/h (3 Bft)
13.01.2016 02:00 1,0 C 97 % 1008,7 hPa 0,0 l/m W-SW 0,00 h 0 W/m 23,7 km/h (4 Bft)
13.01.2016 03:00 1,4 C 95 % 1009,3 hPa 0,0 l/m SW 0,00 h 0 W/m 29,0 km/h (5 Bft)
13.01.2016 04:00 1,2 C 94 % 1009,6 hPa 0,2 l/m SW 0,00 h 0 W/m 26,3 km/h (4 Bft)
13.01.2016 05:00 1,1 C 96 % 1010,1 hPa 0,0 l/m W-SW 0,00 h 0 W/m 25,1 km/h (4 Bft)
13.01.2016 06:00 1,1 C 97 % 1010,6 hPa 0,0 l/m SW 0,00 h 0 W/m 28,8 km/h (5 Bft)
13.01.2016 07:00 1,4 C 95 % 1011,3 hPa 0,2 l/m W-SW 0,00 h 0 W/m 32,7 km/h (5 Bft)
13.01.2016 08:00 1,3 C 95 % 1011,9 hPa 0,0 l/m W-SW 0,00 h 12 W/m 30,3 km/h (5 Bft)
13.01.2016 09:00 1,4 C 95 % 1013,1 hPa 0,0 l/m W 0,00 h 32 W/m 33,8 km/h (5 Bft)
13.01.2016 10:00 1,7 C 95 % 1014,2 hPa 0,0 l/m W-SW 0,00 h 45 W/m 35,1 km/h (5 Bft)
13.01.2016 11:00 1,8 C 93 % 1015,7 hPa 0,0 l/m W 0,00 h 28 W/m 30,9 km/h (5 Bft)
13.01.2016 12:00 2,0 C 93 % 1016,6 hPa 0,0 l/m W-SW 0,00 h 65 W/m 31,9 km/h (5 Bft)
13.01.2016 13:00 2,3 C 92 % 1017,2 hPa 0,0 l/m W-SW 0,00 h 63 W/m 26,7 km/h (4 Bft)
13.01.2016 14:00 2,3 C 92 % 1017,8 hPa 0,0 l/m W-SW 0,00 h 38 W/m 29,8 km/h (5 Bft)
13.01.2016 15:00 2,2 C 91 % 1018,5 hPa 0,0 l/m W-SW 0,00 h 19 W/m 26,1 km/h (4 Bft)
13.01.2016 16:00 1,9 C 92 % 1019,1 hPa 0,0 l/m W-SW 0,00 h 8 W/m 25,5 km/h (4 Bft)
13.01.2016 17:00 1,8 C 90 % 1019,5 hPa 0,0 l/m W-SW 0,00 h 0 W/m 25,6 km/h (4 Bft)
13.01.2016 18:00 1,4 C 89 % 1019,8 hPa 0,0 l/m W-SW 0,00 h 0 W/m 24,3 km/h (4 Bft)
13.01.2016 19:00 1,9 C 81 % 1019,6 hPa 0,0 l/m W 0,00 h 0 W/m 22,7 km/h (4 Bft)
13.01.2016 20:00 1,9 C 78 % 1019,3 hPa 0,0 l/m W 0,00 h 0 W/m 19,8 km/h (4 Bft)
13.01.2016 21:00 1,7 C 79 % 1019,4 hPa 0,0 l/m W 0,00 h 0 W/m 15,7 km/h (3 Bft)
13.01.2016 22:00 1,4 C 80 % 1019,3 hPa 0,0 l/m W 0,00 h 0 W/m 14,6 km/h (3 Bft)
13.01.2016 23:00 1,1 C 82 % 1019,1 hPa 0,0 l/m SW 0,00 h 0 W/m 12,9 km/h (3 Bft)
14.01.2016 00:00 0,3 C 85 % 1018,6 hPa 0,0 l/m SW 0,00 h 0 W/m 10,9 km/h (2 Bft)
14.01.2016 01:00 0,3 C 87 % 1018,1 hPa 0,0 l/m SW 0,00 h 0 W/m 11,9 km/h (2 Bft)
14.01.2016 02:00 -0,1 C 90 % 1018,0 hPa 0,0 l/m SW 0,00 h 0 W/m 1,9 km/h (1 Bft)
14.01.2016 03:00 -1,1 C 91 % 1017,5 hPa 0,0 l/m N 0,00 h 0 W/m 0,0 km/h (0 Bft)
14.01.2016 04:00 -1,9 C 93 % 1016,6 hPa 0,0 l/m N 0,00 h 0 W/m 0,1 km/h (0 Bft)
14.01.2016 05:00 -2,4 C 93 % 1015,9 hPa 0,0 l/m N 0,00 h 0 W/m 0,0 km/h (0 Bft)
14.01.2016 06:00 -2,9 C 94 % 1014,9 hPa 0,0 l/m N 0,00 h 0 W/m 0,0 km/h (0 Bft)
14.01.2016 07:00 -3,5 C 94 % 1014,1 hPa 0,0 l/m N 0,00 h 0 W/m 0,0 km/h (0 Bft)
14.01.2016 08:00 -3,7 C 95 % 1013,3 hPa 0,0 l/m N 0,00 h 15 W/m 0,0 km/h (0 Bft)
14.01.2016 09:00 -3,6 C 95 % 1012,6 hPa 0,0 l/m N 0,00 h 41 W/m 0,0 km/h (0 Bft)
14.01.2016 10:00 -2,7 C 95 % 1012,0 hPa 0,0 l/m N 0,00 h 104 W/m 0,1 km/h (0 Bft)
14.01.2016 11:00 -1,3 C 90 % 1011,4 hPa 0,0 l/m SW 0,67 h 229 W/m 2,0 km/h (1 Bft)
14.01.2016 12:00 0,8 C 78 % 1010,3 hPa 0,0 l/m SW 0,83 h 315 W/m 4,9 km/h (1 Bft)
14.01.2016 13:00 1,3 C 75 % 1009,1 hPa 0,0 l/m SW 0,17 h 149 W/m 1,6 km/h (1 Bft)
14.01.2016 14:00 1,6 C 74 % 1008,4 hPa 0,0 l/m SW 0,00 h 84 W/m 5,2 km/h (1 Bft)
14.01.2016 15:00 1,3 C 76 % 1008,0 hPa 0,0 l/m SW 0,00 h 37 W/m 9,8 km/h (2 Bft)
14.01.2016 16:00 0,7 C 80 % 1007,9 hPa 0,0 l/m SW 0,00 h 10 W/m 11,8 km/h (2 Bft)
14.01.2016 17:00 0,2 C 87 % 1008,1 hPa 0,0 l/m W-SW 0,00 h 0 W/m 18,0 km/h (3 Bft)
14.01.2016 18:00 -0,1 C 92 % 1008,4 hPa 0,2 l/m W-SW 0,00 h 0 W/m 22,4 km/h (4 Bft)
14.01.2016 19:00 0,1 C 92 % 1008,8 hPa 0,0 l/m W-SW 0,00 h 0 W/m 21,7 km/h (4 Bft)
14.01.2016 20:00 0,1 C 94 % 1009,1 hPa 0,0 l/m W-SW 0,00 h 0 W/m 17,7 km/h (3 Bft)
14.01.2016 21:00 0,1 C 94 % 1009,4 hPa 0,0 l/m SW 0,00 h 0 W/m 16,6 km/h (3 Bft)
14.01.2016 22:00 0,2 C 94 % 1009,7 hPa 0,0 l/m W-SW 0,00 h 0 W/m 14,9 km/h (3 Bft)
14.01.2016 23:00 -0,4 C 94 % 1010,0 hPa 0,0 l/m SW 0,00 h 0 W/m 13,8 km/h (3 Bft)
15.01.2016 00:00 -0,3 C 96 % 1010,3 hPa 0,0 l/m SW 0,00 h 0 W/m 16,9 km/h (3 Bft)
15.01.2016 01:00 0,5 C 94 % 1010,4 hPa 0,0 l/m W-SW 0,00 h 0 W/m 19,7 km/h (3 Bft)
15.01.2016 02:00 0,5 C 92 % 1009,8 hPa 0,0 l/m W-SW 0,00 h 0 W/m 19,0 km/h (3 Bft)
15.01.2016 03:00 0,6 C 90 % 1009,3 hPa 0,0 l/m W-SW 0,00 h 0 W/m 27,3 km/h (4 Bft)
15.01.2016 04:00 0,3 C 92 % 1009,2 hPa 0,0 l/m W-SW 0,00 h 0 W/m 24,2 km/h (4 Bft)
15.01.2016 05:00 0,0 C 93 % 1009,4 hPa 0,0 l/m W-SW 0,00 h 0 W/m 26,1 km/h (4 Bft)
15.01.2016 06:00 -0,6 C 91 % 1009,3 hPa 0,0 l/m W-SW 0,00 h 0 W/m 23,5 km/h (4 Bft)
15.01.2016 07:00 -0,6 C 84 % 1009,6 hPa 0,0 l/m W-SW 0,00 h 0 W/m 35,9 km/h (5 Bft)
15.01.2016 08:00 -0,3 C 82 % 1010,1 hPa 0,0 l/m W-SW 0,00 h 13 W/m 40,5 km/h (6 Bft)
15.01.2016 09:00 -0,6 C 84 % 1010,5 hPa 0,0 l/m W-SW 0,00 h 22 W/m 33,4 km/h (5 Bft)
15.01.2016 10:00 -0,8 C 87 % 1010,8 hPa 0,0 l/m W-SW 0,00 h 54 W/m 34,2 km/h (5 Bft)
15.01.2016 11:00 -0,1 C 79 % 1011,2 hPa 0,0 l/m W 0,00 h 71 W/m 41,4 km/h (6 Bft)
15.01.2016 12:00 0,0 C 76 % 1011,3 hPa 0,0 l/m W 0,00 h 46 W/m 43,6 km/h (6 Bft)
15.01.2016 13:00 0,2 C 74 % 1011,3 hPa 0,0 l/m W-SW 0,00 h 40 W/m 34,4 km/h (5 Bft)
15.01.2016 14:00 0,4 C 72 % 1011,2 hPa 0,0 l/m SW 0,00 h 35 W/m 38,8 km/h (5 Bft)
15.01.2016 15:00 0,6 C 71 % 1011,6 hPa 0,0 l/m SW 0,00 h 18 W/m 35,3 km/h (5 Bft)
15.01.2016 16:00 0,6 C 72 % 1011,9 hPa 0,0 l/m W-SW 0,00 h 8 W/m 30,7 km/h (5 Bft)
15.01.2016 17:00 0,6 C 73 % 1012,3 hPa 0,0 l/m W-SW 0,00 h 0 W/m 32,0 km/h (5 Bft)
15.01.2016 18:00 -0,1 C 83 % 1012,8 hPa 0,0 l/m W 0,00 h 0 W/m 24,8 km/h (4 Bft)
15.01.2016 19:00 -0,7 C 90 % 1012,9 hPa 0,0 l/m W-SW 0,00 h 0 W/m 20,6 km/h (4 Bft)
15.01.2016 20:00 -0,7 C 90 % 1013,2 hPa 0,0 l/m W-SW 0,00 h 0 W/m 21,8 km/h (4 Bft)
15.01.2016 21:00 -0,9 C 92 % 1013,5 hPa 0,0 l/m W-SW 0,00 h 0 W/m 18,8 km/h (3 Bft)
15.01.2016 22:00 -0,8 C 91 % 1014,1 hPa 0,0 l/m W-SW 0,00 h 0 W/m 21,8 km/h (4 Bft)
15.01.2016 23:00 -1,0 C 93 % 1014,7 hPa 0,2 l/m W-SW 0,00 h 0 W/m 17,0 km/h (3 Bft)
16.01.2016 00:00 -1,2 C 94 % 1015,1 hPa 0,0 l/m W 0,00 h 0 W/m 17,4 km/h (3 Bft)
16.01.2016 01:00 -1,2 C 94 % 1015,5 hPa 0,4 l/m W 0,00 h 0 W/m 13,0 km/h (3 Bft)
16.01.2016 02:00 -1,3 C 95 % 1016,3 hPa 0,2 l/m W-NW 0,00 h 0 W/m 13,6 km/h (3 Bft)
16.01.2016 03:00 -1,2 C 95 % 1016,7 hPa 0,0 l/m W-NW 0,00 h 0 W/m 9,0 km/h (2 Bft)
16.01.2016 04:00 -1,1 C 95 % 1017,3 hPa 0,0 l/m W-NW 0,00 h 0 W/m 8,9 km/h (2 Bft)
16.01.2016 05:00 -1,0 C 95 % 1018,2 hPa 0,0 l/m NW 0,00 h 0 W/m 7,2 km/h (2 Bft)
16.01.2016 06:00 -1,2 C 94 % 1018,9 hPa 0,0 l/m N-NW 0,00 h 0 W/m 9,7 km/h (2 Bft)
16.01.2016 07:00 -1,8 C 93 % 1019,6 hPa 0,0 l/m N-NW 0,00 h 0 W/m 3,7 km/h (1 Bft)
16.01.2016 08:00 -2,1 C 93 % 1020,6 hPa 0,0 l/m N 0,00 h 11 W/m 1,9 km/h (1 Bft)
16.01.2016 09:00 -1,8 C 93 % 1021,2 hPa 0,0 l/m N-NW 0,00 h 22 W/m 1,5 km/h (1 Bft)
16.01.2016 10:00 -1,0 C 92 % 1021,8 hPa 0,0 l/m W-NW 0,00 h 43 W/m 8,0 km/h (2 Bft)
16.01.2016 11:00 -0,3 C 88 % 1021,8 hPa 0,0 l/m W-NW 0,33 h 169 W/m 7,8 km/h (2 Bft)
16.01.2016 12:00 0,1 C 81 % 1021,7 hPa 0,0 l/m W-NW 0,08 h 109 W/m 8,3 km/h (2 Bft)
16.01.2016 13:00 -0,4 C 84 % 1021,5 hPa 0,0 l/m W-NW 0,00 h 81 W/m 5,9 km/h (2 Bft)
16.01.2016 14:00 -0,2 C 88 % 1021,3 hPa 0,0 l/m W-SW 0,17 h 118 W/m 10,5 km/h (2 Bft)
16.01.2016 15:00 -0,1 C 86 % 1021,0 hPa 0,0 l/m W 0,08 h 61 W/m 12,1 km/h (2 Bft)
16.01.2016 16:00 -0,3 C 84 % 1021,0 hPa 0,0 l/m W 0,00 h 11 W/m 11,0 km/h (2 Bft)
16.01.2016 17:00 -0,7 C 89 % 1021,1 hPa 0,0 l/m W-SW 0,00 h 0 W/m 15,4 km/h (3 Bft)
16.01.2016 18:00 -0,7 C 89 % 1021,3 hPa 0,0 l/m W-SW 0,00 h 0 W/m 18,4 km/h (3 Bft)
16.01.2016 19:00 -0,7 C 88 % 1021,4 hPa 0,0 l/m W-SW 0,00 h 0 W/m 17,6 km/h (3 Bft)
16.01.2016 20:00 -1,3 C 88 % 1021,4 hPa 0,0 l/m W 0,00 h 0 W/m 16,4 km/h (3 Bft)
16.01.2016 21:00 -1,6 C 87 % 1021,3 hPa 0,0 l/m W 0,00 h 0 W/m 20,6 km/h (4 Bft)
16.01.2016 22:00 -1,7 C 87 % 1021,5 hPa 0,0 l/m W-NW 0,00 h 0 W/m 18,6 km/h (3 Bft)
16.01.2016 23:00 -2,2 C 84 % 1021,7 hPa 0,0 l/m W-NW 0,00 h 0 W/m 10,6 km/h (2 Bft)
17.01.2016 00:00 -2,7 C 86 % 1021,7 hPa 0,0 l/m W-NW 0,00 h 0 W/m 11,7 km/h (2 Bft)
17.01.2016 01:00 -2,6 C 87 % 1022,0 hPa 0,0 l/m W-NW 0,00 h 0 W/m 16,2 km/h (3 Bft)
17.01.2016 02:00 -2,8 C 89 % 1022,4 hPa 0,0 l/m W 0,00 h 0 W/m 11,0 km/h (2 Bft)
17.01.2016 03:00 -2,7 C 89 % 1022,2 hPa 0,0 l/m W 0,00 h 0 W/m 13,7 km/h (3 Bft)
17.01.2016 04:00 -2,9 C 88 % 1021,8 hPa 0,0 l/m W 0,00 h 0 W/m 14,1 km/h (3 Bft)
17.01.2016 05:00 -3,0 C 90 % 1021,3 hPa 0,0 l/m W 0,00 h 0 W/m 15,7 km/h (3 Bft)
17.01.2016 06:00 -3,0 C 92 % 1020,8 hPa 0,0 l/m W 0,00 h 0 W/m 10,9 km/h (2 Bft)
17.01.2016 07:00 -2,8 C 94 % 1020,7 hPa 0,0 l/m W-SW 0,00 h 0 W/m 10,6 km/h (2 Bft)
17.01.2016 08:00 -2,9 C 94 % 1020,5 hPa 0,2 l/m W-SW 0,00 h 14 W/m 7,6 km/h (2 Bft)
17.01.2016 09:00 -2,7 C 94 % 1020,6 hPa 0,0 l/m W-SW 0,00 h 26 W/m 4,7 km/h (1 Bft)
17.01.2016 10:00 -2,7 C 94 % 1020,9 hPa 0,4 l/m NW 0,00 h 13 W/m 11,3 km/h (2 Bft)
17.01.2016 11:00 -2,3 C 94 % 1020,9 hPa 1,2 l/m W-NW 0,33 h 181 W/m 10,6 km/h (2 Bft)
17.01.2016 12:00 -1,7 C 89 % 1020,9 hPa 0,6 l/m N-NW 0,50 h 219 W/m 17,7 km/h (3 Bft)
17.01.2016 13:00 -2,4 C 87 % 1021,3 hPa 0,2 l/m N-NW 0,92 h 339 W/m 15,8 km/h (3 Bft)
17.01.2016 14:00 -2,2 C 84 % 1021,8 hPa 0,0 l/m NW 0,33 h 161 W/m 12,1 km/h (2 Bft)
17.01.2016 15:00 -2,9 C 84 % 1022,5 hPa 0,0 l/m NW 0,58 h 114 W/m 11,7 km/h (2 Bft)
17.01.2016 16:00 -3,6 C 85 % 1023,1 hPa 0,0 l/m W-NW 0,08 h 21 W/m 6,8 km/h (2 Bft)
17.01.2016 17:00 -4,6 C 87 % 1023,9 hPa 0,0 l/m W-NW 0,00 h 0 W/m 6,4 km/h (2 Bft)
17.01.2016 18:00 -5,6 C 88 % 1024,7 hPa 0,0 l/m N 0,00 h 0 W/m 0,0 km/h (0 Bft)
17.01.2016 19:00 -6,8 C 88 % 1025,2 hPa 0,0 l/m N 0,00 h 0 W/m 0,0 km/h (0 Bft)
17.01.2016 20:00 -7,2 C 91 % 1025,5 hPa 0,0 l/m N 0,00 h 0 W/m 0,4 km/h (0 Bft)
17.01.2016 21:00 -7,4 C 92 % 1025,3 hPa 0,0 l/m N 0,00 h 0 W/m 0,0 km/h (0 Bft)
17.01.2016 22:00 -7,5 C 93 % 1025,1 hPa 0,0 l/m N 0,00 h 0 W/m 0,0 km/h (0 Bft)
17.01.2016 23:00 -8,2 C 92 % 1024,9 hPa 0,0 l/m N 0,00 h 0 W/m 0,0 km/h (0 Bft)
Min-Datum _ 17.01.16 14.01.16 11.01.16 - - - - 11.01.16
_ Min-Zeit 23:50 14:25 13:30 - - - - 00:20
Minimum _ -8,6 C 70 % 991,2 hPa - - - - 0,0 km/h (0 Bft)
Max-Datum _ 11.01.16 11.01.16 17.01.16 12.01.16 - 11.01.16 17.01.16 12.01.16
_ Max-Zeit 17:15 01:30 20:35 08:20 - 16:05 12:15 01:55
Maximum _ 5,6 C 100 % 1025,6 hPa 2,0 l/m - 0,08 h 564 W/m 54,7 km/h
SW (7 Bft)
Durchschnitt _ 0,4 C 91 % 1010,7 hPa #29,4 l/m W-SW #6:45 h 70 W/m 17,1 km/h (3 Bft)